• en Suisse
  • Liste des pays
  • À 7 jours
  • Température de l'eau
  • Carte satellitaire
  • Carte météo
  • Widgets météo
  • user-avatar
    Se connecter

    Météo par heure à Serho

    Ce jour, 25 Septembre, Mardi

    Heure Température Précipitation Vent Pression Humidité
    00:00 +10°C° 1 mm 6 m/s 743 mmHg 84%
    01:00 +10°C° 1 mm 6 m/s 744 mmHg 84%
    02:00 +9°C° 0 mm 5 m/s 744 mmHg 84%
    03:00 +9°C° 0.3 mm 5 m/s 744 mmHg 83%
    04:00 +9°C° 0.3 mm 5 m/s 745 mmHg 83%
    05:00 +10°C° 0.3 mm 4 m/s 745 mmHg 82%
    06:00 +9°C° 0 mm 5 m/s 745 mmHg 80%
    07:00 +9°C° 0 mm 5 m/s 746 mmHg 78%
    08:00 +10°C° 0 mm 5 m/s 746 mmHg 75%
    09:00 +10°C° 0.1 mm 5 m/s 746 mmHg 72%
    10:00 +11°C° 0.1 mm 6 m/s 747 mmHg 68%
    11:00 +11°C° 0.1 mm 6 m/s 747 mmHg 65%
    12:00 +13°C° 0.1 mm 6 m/s 747 mmHg 63%
    13:00 +13°C° 0.1 mm 5 m/s 748 mmHg 60%
    14:00 +14°C° 0 mm 5 m/s 748 mmHg 58%
    15:00 +13°C° 0.5 mm 4 m/s 748 mmHg 62%
    16:00 +12°C° 0.5 mm 4 m/s 748 mmHg 65%
    17:00 +12°C° 0.5 mm 4 m/s 749 mmHg 68%
    18:00 +11°C° 0.3 mm 4 m/s 749 mmHg 71%
    19:00 +9°C° 0.3 mm 5 m/s 750 mmHg 74%
    20:00 +9°C° 0.3 mm 5 m/s 751 mmHg 78%
    21:00 +8°C° 0.1 mm 5 m/s 751 mmHg 79%
    22:00 +8°C° 0.1 mm 5 m/s 752 mmHg 80%
    23:00 +7°C° 0.1 mm 5 m/s 752 mmHg 81%

    Demain, 26 Septembre, Mercredi

    Heure Température Précipitation Vent Pression Humidité
    00:00 +7°C° 0 mm 4 m/s 753 mmHg 81%
    01:00 +7°C° 0 mm 4 m/s 753 mmHg 81%
    02:00 +7°C° 0 mm 4 m/s 754 mmHg 80%
    03:00 +7°C° 0 mm 4 m/s 754 mmHg 79%
    04:00 +8°C° 0 mm 3 m/s 755 mmHg 78%
    05:00 +8°C° 0 mm 3 m/s 755 mmHg 77%
    06:00 +7°C° 0 mm 4 m/s 755 mmHg 72%
    07:00 +8°C° 0 mm 4 m/s 756 mmHg 68%
    08:00 +8°C° 0 mm 4 m/s 756 mmHg 64%
    09:00 +10°C° 0 mm 4 m/s 757 mmHg 59%
    10:00 +10°C° 0 mm 4 m/s 757 mmHg 55%
    11:00 +11°C° 0 mm 4 m/s 757 mmHg 51%
    12:00 +11°C° 0 mm 4 m/s 757 mmHg 49%
    13:00 +12°C° 0 mm 4 m/s 757 mmHg 47%
    14:00 +12°C° 0 mm 4 m/s 758 mmHg 46%
    15:00 +12°C° 0 mm 3 m/s 758 mmHg 48%
    16:00 +11°C° 0 mm 3 m/s 758 mmHg 51%
    17:00 +12°C° 0 mm 2 m/s 758 mmHg 53%
    18:00 +10°C° 0 mm 2 m/s 758 mmHg 58%
    19:00 +9°C° 0 mm 2 m/s 758 mmHg 62%
    20:00 +8°C° 0 mm 2 m/s 759 mmHg 66%
    21:00 +7°C° 0 mm 2 m/s 759 mmHg 67%
    22:00 +7°C° 0 mm 2 m/s 759 mmHg 68%
    23:00 +6°C° 0 mm 2 m/s 759 mmHg 70%

    Après-demain, 27 Septembre, Jeudi

    Heure Température Précipitation Vent Pression Humidité
    00:00 +6°C° 0 mm 2 m/s 759 mmHg 69%
    01:00 +5°C° 0 mm 2 m/s 759 mmHg 68%
    02:00 +5°C° 0 mm 2 m/s 758 mmHg 68%
    03:00 +4°C° 0 mm 3 m/s 758 mmHg 68%
    04:00 +4°C° 0 mm 3 m/s 758 mmHg 68%
    05:00 +3°C° 0 mm 3 m/s 757 mmHg 68%
    06:00 +5°C° 0 mm 4 m/s 757 mmHg 63%
    07:00 +6°C° 0 mm 5 m/s 757 mmHg 58%
    08:00 +8°C° 0 mm 6 m/s 756 mmHg 52%
    09:00 +9°C° 0 mm 7 m/s 756 mmHg 48%
    10:00 +11°C° 0 mm 8 m/s 755 mmHg 44%
    11:00 +12°C° 0 mm 8 m/s 755 mmHg 40%
    12:00 +13°C° 0 mm 8 m/s 754 mmHg 40%
    13:00 +13°C° 0 mm 8 m/s 754 mmHg 40%
    14:00 +15°C° 0 mm 9 m/s 753 mmHg 40%
    15:00 +13°C° 0 mm 8 m/s 753 mmHg 44%
    16:00 +14°C° 0 mm 7 m/s 753 mmHg 47%
    17:00 +13°C° 0 mm 6 m/s 753 mmHg 51%
    18:00 +12°C° 0 mm 5 m/s 753 mmHg 54%
    19:00 +10°C° 0 mm 5 m/s 753 mmHg 57%
    20:00 +10°C° 0 mm 4 m/s 753 mmHg 61%
    21:00 +10°C° 0 mm 4 m/s 753 mmHg 63%
    22:00 +10°C° 0 mm 4 m/s 753 mmHg 65%
    23:00 +10°C° 0 mm 3 m/s 753 mmHg 67%

    28 Septembre, Vendredi

    Heure Température Précipitation Vent Pression Humidité
    00:00 +9°C° 0 mm 3 m/s 753 mmHg 69%
    01:00 +9°C° 0 mm 3 m/s 753 mmHg 72%
    02:00 +9°C° 0 mm 3 m/s 753 mmHg 75%
    03:00 +9°C° 0 mm 3 m/s 753 mmHg 79%
    04:00 +8°C° 0 mm 3 m/s 752 mmHg 82%
    05:00 +8°C° 0 mm 3 m/s 752 mmHg 86%
    06:00 +9°C° 0 mm 3 m/s 752 mmHg 82%
    07:00 +10°C° 0 mm 3 m/s 752 mmHg 79%
    08:00 +11°C° 0 mm 3 m/s 752 mmHg 75%
    09:00 +13°C° 0 mm 4 m/s 752 mmHg 69%
    10:00 +15°C° 0 mm 4 m/s 751 mmHg 63%
    11:00 +17°C° 0 mm 5 m/s 751 mmHg 58%
    12:00 +19°C° 0 mm 5 m/s 751 mmHg 56%
    13:00 +20°C° 0 mm 5 m/s 750 mmHg 54%
    14:00 +20°C° 0 mm 5 m/s 750 mmHg 52%
    15:00 +20°C° 0 mm 4 m/s 749 mmHg 56%
    16:00 +19°C° 0 mm 3 m/s 749 mmHg 60%
    17:00 +18°C° 0 mm 3 m/s 749 mmHg 63%
    18:00 +17°C° 0 mm 3 m/s 749 mmHg 67%
    19:00 +16°C° 0 mm 3 m/s 749 mmHg 70%
    20:00 +14°C° 0 mm 3 m/s 749 mmHg 73%
    21:00 +14°C° 0 mm 3 m/s 749 mmHg 75%
    22:00 +14°C° 0 mm 3 m/s 749 mmHg 76%
    23:00 +13°C° 0 mm 3 m/s 749 mmHg 78%

    29 Septembre, Samedi

    Heure Température Précipitation Vent Pression Humidité
    00:00 +14°C° 0 mm 2 m/s 749 mmHg 79%
    01:00 +14°C° 0 mm 2 m/s 749 mmHg 79%
    02:00 +14°C° 0 mm 2 m/s 749 mmHg 80%
    03:00 +14°C° 0 mm 2 m/s 749 mmHg 82%
    04:00 +13°C° 0 mm 2 m/s 749 mmHg 83%
    05:00 +13°C° 0 mm 2 m/s 749 mmHg 84%
    06:00 +14°C° 0 mm 2 m/s 749 mmHg 80%
    07:00 +15°C° 0 mm 2 m/s 749 mmHg 76%
    08:00 +16°C° 0 mm 2 m/s 749 mmHg 72%
    09:00 +17°C° 0 mm 2 m/s 749 mmHg 68%
    10:00 +18°C° 0 mm 2 m/s 750 mmHg 64%
    11:00 +19°C° 0 mm 2 m/s 750 mmHg 59%
    12:00 +20°C° 0 mm 2 m/s 750 mmHg 56%
    13:00 +21°C° 0 mm 2 m/s 750 mmHg 53%
    14:00 +23°C° 0 mm 2 m/s 749 mmHg 49%
    15:00 +21°C° 0 mm 2 m/s 750 mmHg 52%
    16:00 +20°C° 0 mm 2 m/s 750 mmHg 55%
    17:00 +20°C° 0 mm 2 m/s 750 mmHg 57%
    18:00 +19°C° 0 mm 2 m/s 750 mmHg 61%
    19:00 +18°C° 0 mm 3 m/s 751 mmHg 64%
    20:00 +17°C° 0 mm 3 m/s 751 mmHg 68%
    21:00 +16°C° 0 mm 3 m/s 751 mmHg 72%
    22:00 +14°C° 0 mm 3 m/s 752 mmHg 76%
    23:00 +14°C° 0 mm 4 m/s 752 mmHg 80%

    30 Septembre, Dimanche

    Heure Température Précipitation Vent Pression Humidité
    00:00 +13°C° 0 mm 4 m/s 752 mmHg 81%
    01:00 +13°C° 0 mm 4 m/s 753 mmHg 82%
    02:00 +12°C° 0 mm 4 m/s 753 mmHg 83%
    03:00 +12°C° 0 mm 5 m/s 753 mmHg 80%
    04:00 +10°C° 0 mm 5 m/s 754 mmHg 78%
    05:00 +10°C° 0 mm 5 m/s 754 mmHg 76%
    06:00 +10°C° 0 mm 5 m/s 754 mmHg 71%
    07:00 +12°C° 0 mm 5 m/s 754 mmHg 66%
    08:00 +12°C° 0 mm 5 m/s 755 mmHg 62%
    09:00 +14°C° 0 mm 5 m/s 755 mmHg 57%
    10:00 +15°C° 0 mm 5 m/s 755 mmHg 53%
    11:00 +16°C° 0 mm 5 m/s 755 mmHg 48%
    12:00 +17°C° 0 mm 5 m/s 755 mmHg 46%
    13:00 +19°C° 0 mm 5 m/s 754 mmHg 44%
    14:00 +19°C° 0 mm 5 m/s 754 mmHg 42%
    15:00 +17°C° 0 mm 5 m/s 754 mmHg 43%
    16:00 +17°C° 0 mm 4 m/s 754 mmHg 44%
    17:00 +15°C° 0 mm 4 m/s 754 mmHg 46%
    18:00 +14°C° 0 mm 4 m/s 754 mmHg 46%
    19:00 +13°C° 0 mm 4 m/s 754 mmHg 47%
    20:00 +12°C° 0 mm 4 m/s 755 mmHg 47%
    21:00 +12°C° 0 mm 4 m/s 754 mmHg 48%
    22:00 +11°C° 0 mm 4 m/s 754 mmHg 50%
    23:00 +11°C° 0 mm 4 m/s 754 mmHg 51%
    Voir plus